This demonstration page uses our WeatherBlox Daily Observations layout. Learn more.

Left ArrowRight Arrow

38.20091, -84.87328

Hourly Observations for January 28, 2016

Temp ( °F °C ) Dew Point ( °F °C ) Humidity (%) Winds ( mph kmh ) Pressure ( in mb ) Visibility ( mi km ) Precip ( " mm )
12:53 am 00:53 Clear 21 -6.1 16 -8.9 81 81 Calm 30.09 1019 10 16 0.00 0.00
1:53 am 01:53 Clear 20 -6.7 15 -9.4 81 81 Calm 30.07 1018 10 16 0.00 0.00
2:53 am 02:53 Clear 20 -6.7 15 -9.4 81 81 S 3 6 30.05 1018 10 16 0.00 0.00
3:53 am 03:53 Clear 20 -6.7 16 -8.9 85 85 SSW 5 7 30.03 1017 10 16 0.00 0.00
4:53 am 04:53 Clear 22 -5.6 18 -7.8 85 85 S 5 7 30.00 1016 10 16 0.00 0.00
5:53 am 05:53 Mostly Cloudy 26 -3.3 20 -6.7 78 78 S 8 13 29.96 1015 10 16 0.00 0.00
6:53 am 06:53 Cloudy 27 -2.8 21 -6.1 78 78 S 8 13 29.94 1014 10 16 0.00 0.00
7:53 am 07:53 Cloudy 28 -2.2 22 -5.6 78 78 SSW 10 17 29.93 1014 10 16 0.00 0.00
8:53 am 08:53 Cloudy 30 -1.1 23 -5 75 75 SSW 10 17 29.92 1013 10 16 0.00 0.00
9:53 am 09:53 Sunny 32 0 23 -5 69 69 SSW 12 19 29.91 1013 10 16 0.00 0.00
10:53 am 10:53 Sunny 37 2.8 24 -4.4 59 59 SW 15 24 29.88 1012 10 16 0.00 0.00
11:53 am 11:53 Sunny 40 4.4 25 -3.9 55 55 SW 15 24 29.86 1011 10 16 0.00 0.00
12:53 pm 12:53 Sunny 43 6.1 26 -3.3 51 51 SW 16 26 29.83 1010 10 16 0.00 0.00
1:53 pm 13:53 Sunny 45 7.2 27 -2.8 49 49 SW 16 26 29.78 1009 10 16 0.00 0.00
2:53 pm 14:53 Sunny 47 8.3 28 -2.2 48 48 SW 17 28 29.76 1008 10 16 0.00 0.00
3:53 pm 15:53 Sunny 47 8.3 28 -2.2 48 48 SW 17 28 29.75 1008 10 16 0.00 0.00
4:53 pm 16:53 Sunny 46 7.8 28 -2.2 50 50 SSW 14 22 29.73 1007 10 16 0.00 0.00
5:53 pm 17:53 Sunny 44 6.7 28 -2.2 53 53 SW 12 19 29.73 1007 10 16 0.00 0.00
6:53 pm 18:53 Mostly Cloudy 41 5 29 -1.7 62 62 SW 8 13 29.76 1008 10 16 0.00 0.00
7:53 pm 19:53 Mostly Cloudy 41 5 29 -1.7 62 62 SW 9 15 29.75 1008 10 16 0.00 0.00
8:53 pm 20:53 Cloudy 42 5.6 29 -1.7 60 60 WSW 8 13 29.76 1008 10 16 0.00 0.00
9:53 pm 21:53 Cloudy 42 5.6 29 -1.7 60 60 W 6 9 29.76 1008 10 16 0.00 0.00
10:53 pm 22:53 Cloudy 41 5 29 -1.7 62 62 WSW 7 11 29.76 1008 10 16 0.00 0.00
11:53 pm 23:53 Cloudy 43 6.1 28 -2.2 56 56 W 7 11 29.77 1008 10 16 0.00 0.00

Powered by AerisWeather